Hourly Weather Allmend

Today, 4 March, Thursday

Time Temperature Precipitation Wind Pressure Humidity
00:00 +5°C° 0 mm 1 mps 695 mmHg 61%
01:00 +4°C° 0 mm 1 mps 695 mmHg 59%
02:00 +4°C° 0 mm 1 mps 695 mmHg 60%
03:00 +4°C° 0 mm 1 mps 694 mmHg 61%
04:00 +5°C° 0 mm 1 mps 694 mmHg 62%
05:00 +4°C° 0 mm 1 mps 694 mmHg 62%
06:00 +4°C° 0 mm 1 mps 693 mmHg 63%
07:00 +4°C° 0 mm 1 mps 693 mmHg 63%
08:00 +6°C° 0 mm 1 mps 693 mmHg 62%
09:00 +8°C° 0 mm 1 mps 693 mmHg 61%
10:00 +8°C° 0 mm 0 mps 693 mmHg 61%
11:00 +10°C° 0 mm 1 mps 693 mmHg 60%
12:00 +11°C° 0 mm 1 mps 692 mmHg 59%
13:00 +12°C° 0 mm 2 mps 692 mmHg 58%
14:00 +10°C° 0 mm 2 mps 692 mmHg 61%
15:00 +11°C° 0 mm 1 mps 691 mmHg 64%
16:00 +10°C° 0 mm 1 mps 691 mmHg 67%
17:00 +9°C° 0.3 mm 1 mps 690 mmHg 75%
18:00 +8°C° 0.3 mm 1 mps 690 mmHg 83%
19:00 +5°C° 0.3 mm 0 mps 690 mmHg 91%
20:00 +6°C° 1.2 mm 1 mps 690 mmHg 92%
21:00 +5°C° 1.2 mm 1 mps 690 mmHg 94%
22:00 +5°C° 1.2 mm 1 mps 690 mmHg 95%
23:00 +5°C° 0.8 mm 1 mps 690 mmHg 95%

Tomorrow, 5 March, Friday

Time Temperature Precipitation Wind Pressure Humidity
00:00 +5°C° 0.8 mm 1 mps 690 mmHg 95%
01:00 +5°C° 0.8 mm 1 mps 690 mmHg 95%
02:00 +5°C° 0.5 mm 1 mps 690 mmHg 95%
03:00 +5°C° 0.5 mm 1 mps 690 mmHg 96%
04:00 +4°C° 0.5 mm 1 mps 690 mmHg 96%
05:00 +3°C° 0.2 mm 0 mps 690 mmHg 96%
06:00 +3°C° 0.2 mm 0 mps 690 mmHg 96%
07:00 +3°C° 0.2 mm 0 mps 690 mmHg 96%
08:00 +4°C° 0.1 mm 1 mps 690 mmHg 94%
09:00 +5°C° 0.1 mm 1 mps 690 mmHg 92%
10:00 +5°C° 0.1 mm 1 mps 690 mmHg 90%
11:00 +5°C° 0.2 mm 1 mps 690 mmHg 90%
12:00 +5°C° 0.2 mm 1 mps 690 mmHg 91%
13:00 +5°C° 0.2 mm 1 mps 690 mmHg 92%
14:00 +4°C° 0.3 mm 2 mps 690 mmHg 93%
15:00 +3°C° 0.3 mm 2 mps 690 mmHg 94%
16:00 +3°C° 0.3 mm 2 mps 690 mmHg 95%
17:00 +2°C° 0.2 mm 2 mps 691 mmHg 95%
18:00 +2°C° 0.2 mm 2 mps 691 mmHg 95%
19:00 +1°C° 0.2 mm 2 mps 691 mmHg 96%
20:00 +1°C° 0.1 mm 2 mps 692 mmHg 95%
21:00 +1°C° 0.1 mm 2 mps 693 mmHg 95%
22:00 -1°C° 0.1 mm 2 mps 693 mmHg 94%
23:00 -1°C° 0 mm 2 mps 693 mmHg 94%

Day after tomorrow, 6 March, Saturday

Time Temperature Precipitation Wind Pressure Humidity
00:00 -1°C° 0 mm 2 mps 693 mmHg 93%
01:00 -2°C° 0 mm 2 mps 693 mmHg 93%
02:00 -2°C° 0 mm 2 mps 693 mmHg 91%
03:00 -3°C° 0 mm 2 mps 693 mmHg 90%
04:00 -3°C° 0 mm 2 mps 693 mmHg 88%
05:00 -3°C° 0 mm 2 mps 693 mmHg 88%
06:00 -2°C° 0 mm 1 mps 693 mmHg 88%
07:00 -2°C° 0 mm 1 mps 693 mmHg 89%
08:00 -1°C° 0 mm 1 mps 694 mmHg 87%
09:00 0°C° 0 mm 1 mps 694 mmHg 85%
10:00 +1°C° 0 mm 1 mps 694 mmHg 84%
11:00 +2°C° 0 mm 1 mps 694 mmHg 83%
12:00 +3°C° 0 mm 1 mps 694 mmHg 81%
13:00 +4°C° 0 mm 1 mps 694 mmHg 80%
14:00 +4°C° 0 mm 1 mps 694 mmHg 79%
15:00 +5°C° 0 mm 1 mps 694 mmHg 77%
16:00 +5°C° 0 mm 1 mps 694 mmHg 76%
17:00 +4°C° 0 mm 1 mps 694 mmHg 81%
18:00 +2°C° 0 mm 1 mps 694 mmHg 86%
19:00 0°C° 0 mm 0 mps 694 mmHg 91%
20:00 +1°C° 0 mm 1 mps 694 mmHg 89%
21:00 0°C° 0 mm 1 mps 694 mmHg 87%
22:00 0°C° 0 mm 1 mps 694 mmHg 86%
23:00 0°C° 0 mm 1 mps 694 mmHg 84%

7 March, Sunday

Time Temperature Precipitation Wind Pressure Humidity
00:00 0°C° 0 mm 1 mps 694 mmHg 82%
01:00 0°C° 0 mm 1 mps 694 mmHg 80%
02:00 0°C° 0 mm 1 mps 694 mmHg 80%
03:00 0°C° 0 mm 1 mps 694 mmHg 79%
04:00 0°C° 0 mm 1 mps 694 mmHg 78%
05:00 0°C° 0 mm 1 mps 693 mmHg 78%
06:00 +1°C° 0 mm 1 mps 693 mmHg 78%
07:00 +1°C° 0 mm 1 mps 693 mmHg 78%
08:00 +2°C° 0 mm 0 mps 693 mmHg 75%
09:00 +4°C° 0 mm 0 mps 693 mmHg 73%
10:00 +5°C° 0 mm 0 mps 693 mmHg 70%
11:00 +6°C° 0 mm 0 mps 693 mmHg 70%
12:00 +8°C° 0 mm 1 mps 693 mmHg 70%
13:00 +9°C° 0 mm 1 mps 693 mmHg 70%
14:00 +8°C° 0.2 mm 1 mps 692 mmHg 73%
15:00 +8°C° 0.2 mm 1 mps 691 mmHg 75%
16:00 +8°C° 0.2 mm 1 mps 691 mmHg 78%
17:00 +6°C° 0.1 mm 1 mps 691 mmHg 83%
18:00 +4°C° 0.1 mm 0 mps 690 mmHg 88%
19:00 +3°C° 0.1 mm 0 mps 690 mmHg 92%
20:00 +3°C° 0 mm 0 mps 690 mmHg 92%
21:00 +3°C° 0 mm 0 mps 690 mmHg 92%
22:00 +2°C° 0 mm 0 mps 690 mmHg 92%
23:00 +2°C° 0 mm 0 mps 690 mmHg 92%

8 March, Monday

Time Temperature Precipitation Wind Pressure Humidity
00:00 +2°C° 0 mm 0 mps 690 mmHg 92%
01:00 +2°C° 0 mm 0 mps 690 mmHg 92%
02:00 +2°C° 0.1 mm 0 mps 690 mmHg 93%
03:00 +1°C° 0.1 mm 0 mps 689 mmHg 94%
04:00 +1°C° 0.1 mm 0 mps 689 mmHg 95%
05:00 +1°C° 0.1 mm 0 mps 689 mmHg 95%
06:00 +1°C° 0.1 mm 0 mps 689 mmHg 95%
07:00 +2°C° 0.1 mm 1 mps 689 mmHg 96%
08:00 +2°C° 0.1 mm 1 mps 689 mmHg 94%
09:00 +3°C° 0.1 mm 1 mps 689 mmHg 92%
10:00 +4°C° 0.1 mm 1 mps 689 mmHg 90%
11:00 +4°C° 0 mm 1 mps 689 mmHg 86%
12:00 +4°C° 0 mm 2 mps 689 mmHg 82%
13:00 +4°C° 0 mm 2 mps 689 mmHg 78%
14:00 +4°C° 0.1 mm 2 mps 689 mmHg 77%
15:00 +4°C° 0.1 mm 2 mps 689 mmHg 76%
16:00 +4°C° 0.1 mm 2 mps 688 mmHg 75%
17:00 +4°C° 0 mm 2 mps 689 mmHg 78%
18:00 +4°C° 0 mm 1 mps 689 mmHg 81%
19:00 +3°C° 0 mm 1 mps 689 mmHg 85%
20:00 +2°C° 0 mm 1 mps 689 mmHg 85%
21:00 +1°C° 0 mm 1 mps 690 mmHg 86%
22:00 0°C° 0 mm 1 mps 690 mmHg 87%
23:00 -1°C° 0 mm 1 mps 690 mmHg 86%

9 March, Tuesday

Time Temperature Precipitation Wind Pressure Humidity
00:00 -1°C° 0 mm 1 mps 690 mmHg 85%
01:00 -2°C° 0 mm 1 mps 690 mmHg 84%
02:00 -2°C° 0 mm 1 mps 690 mmHg 84%
03:00 -2°C° 0 mm 1 mps 690 mmHg 84%
04:00 -2°C° 0 mm 1 mps 690 mmHg 84%
05:00 -3°C° 0 mm 0 mps 690 mmHg 84%
06:00 -4°C° 0 mm 0 mps 690 mmHg 85%
07:00 -4°C° 0 mm 0 mps 690 mmHg 85%
08:00 -1°C° 0 mm 1 mps 691 mmHg 80%
09:00 +1°C° 0 mm 1 mps 691 mmHg 74%
10:00 +3°C° 0 mm 1 mps 692 mmHg 69%
11:00 +4°C° 0 mm 1 mps 692 mmHg 67%
12:00 +4°C° 0 mm 2 mps 692 mmHg 65%
13:00 +5°C° 0 mm 2 mps 692 mmHg 63%
14:00 +5°C° 0 mm 2 mps 692 mmHg 62%
15:00 +5°C° 0 mm 2 mps 692 mmHg 62%
16:00 +5°C° 0 mm 2 mps 692 mmHg 61%
17:00 +4°C° 0 mm 1 mps 692 mmHg 67%
18:00 +3°C° 0 mm 1 mps 692 mmHg 73%
19:00 +1°C° 0 mm 1 mps 692 mmHg 79%
20:00 +1°C° 0 mm 1 mps 692 mmHg 81%
21:00 0°C° 0 mm 1 mps 693 mmHg 82%
22:00 -1°C° 0 mm 1 mps 693 mmHg 84%
23:00 -1°C° 0 mm 1 mps 693 mmHg 82%
Show more